ONEWEB-0721, 56725

Orbit data source: Space-Track

ONEWEB-0721, 56725 is a payload satellite owned by One Web (NAA) (UK) in LEO that was launched on Sat, 20 May 2023 UTC via an FALCON 9 launch vehicle from the Air Force Western Test Range (AFWTR). Payloads include a variety of satellites, spacecraft, and rockets equipped with specific instruments for various scientific and technological missions. These include communications satellites like Starlink; space stations such as the ISS; scientific satellites like the Hubble; Earth observation satellites from companies like Planet Labs, Umbra, and HawkEye 360; GPS; miniature CubeSats for education and research; and military/defense satellites.

Loading next visibility...
ONEWEB-0721 details
Identifier
56725, 2023-068R
Orbit
LEO
Last TLE update19 hours ago
Origin
Flag of UKOne Web (NAA) (UK)
ManufacturerOne Web
MissionPartially operational Commercial Communications
Bus & MotorARROW, Unknown motor
Mass148 kg wet, ~140 kg dry
Launch date (UTC)
2023-05-20 (2 years ago)
Launch vehicle
FALCON 9
Launch site
Air Force Western Test Range (AFWTR)
Object type
Payload
Rocket body
Debris
Shape & HBRTrap Box + 2 Pan, 5 m
Radar Cross Section2.032 m², Medium (>0.1 m² and < 1m²)

Expand to show TLE details & history

TLE from 19 hours ago
0 ONEWEB-0721
1 56725U 23068R   25014.72599468  .00000092  00000-0  87264-4 0  9998
2 56725  86.6743 251.2189 0006906 271.8280  88.2088 13.69057516 89338
Epoch: 2025-01-14T17:25Z
Definitive object data (Epoch: 2025-01-14T17:25:25.94Z)
Latitude-0.00008°
Longitude-124.56775°
Altitude1,005.762 km
Speed7.349 km/s
True Right ascension16h 44m 52s
True Declination0° 00' 00"
Sunlit
Object was in daylight at TLE epoch
Visualization TLE readout
Latitude-50.09059°
Longitude59.1263°
Altitude1,018.513 km
Speed7.343 km/s
Apparent Right ascension02h 50m 24s
Apparent Declination-49° 49' 59"
Sunlit
Object is in daylight
Visualization observer readout
Local Sidereal Time12:45:25
Azimuth235.233° WSW
Elevation-65.965°
Doppler factor1
Orbital elements
Apogee altitude1,005.104 km
Perigee altitude994.913 km
Semi-major axis7,378.146 km
Eccentricity0.0006906
Inclination86.6743°
RAAN251.2189°
Arg. of periapsis271.828°
True anomaly88.2879°
Mean anomaly88.2088°
Eccentric anomaly88.24835°
Mean motion3.4247 °/min
BSTAR0.000087264
Orbital period105.12 mins
Loading maneuver chart data...
Loading historical data...
Loading historical data...
Loading historical data...
Loading historical data...
Loading historical data...
Loading historical data...
Loading historical data...

ONEWEB-0721 Visibility forecast

Observer location: undefined°, undefined

Span
Click to sort rows by Start time (UTC) header in descending order
Start Az.
Max El. time (UTC)
Max El. Az.
Max El.
End time (UTC)
End Az.
7 mins2025-01-15 14:37:06.619Z110.341° ESE2025-01-15 14:41:06.619Z70.454° E15.337°2025-01-15 14:44:06.619Z41.571° NE
11 mins2025-01-15 16:20:06.619Z189.205° SSW2025-01-15 16:25:06.619Z256.794° W43.777°2025-01-15 16:31:06.619Z357.871° N
11 mins2025-01-16 03:21:06.619Z8.879° NNE2025-01-16 03:26:06.619Z92.357° ESE40.872°2025-01-16 03:32:06.619Z164.719° S
7 mins2025-01-16 05:08:06.619Z313.017° NW2025-01-16 05:11:06.619Z278.54° WNW18.832°2025-01-16 05:15:06.619Z238.642° WSW
|